Regional Weather Roundup
Issued by NWS

Home | Current Version | Previous Version | Graphics & Text | Print | Product List | Glossary On
Versions: 1 2 3 4 5 6 7 8 9 10 11 12 13 14 15 16 17 18 19 20 21 22 23 24 25 26 27 28
000
ASUS45 KSLC 300110
RWRUT

UTAH REGIONAL WEATHER ROUNDUP
NATIONAL WEATHER SERVICE SALT LAKE CITY UT
700 PM MDT WED OCT 29 2014

UTZ001>011-023>025-300200-

NORTHERN UTAH

CITY           SKY/WX    TMP DP  RH WIND       PRES   REMARKS
BRIGHAM CITY   PTCLDY    58  20  23 CALM      30.25S
HILL AFB       PTCLDY    58  21  23 NE1       30.25F
LOGAN          CLEAR     52  30  43 N8        30.25R
OGDEN          PTCLDY    56  21  25 CALM      30.24S
PROVO AIRPORT  CLEAR     55  19  24 VRB5      30.24F
SALT LAKE CITY PTCLDY    57  33  40 NW6       30.23S
VERNAL         CLEAR     48  23  37 W5        30.24R
WENDOVER       CLEAR     52  25  35 CALM      30.23S
HEBER CITY     CLEAR     54  21  28 N6        30.26R
WEST JORDAN    CLEAR     55  34  44 NW3       30.25S

$$

UTZ012>022-026-027-300200-

SOUTHERN/CENTRAL UTAH

CITY           SKY/WX    TMP DP  RH WIND       PRES   REMARKS
BLANDING       CLEAR     56  14  19 CALM      30.34S
BRYCE CANYON   PTCLDY    48  19  31 S8        30.35R
CEDAR CITY     CLEAR     56  18  22 NE3       30.24R
DELTA          CLEAR     59  20  22 NW3       30.24R
HANKSVILLE       N/A     55  12  18 N7        30.23S
MILFORD        CLEAR     57  23  26 N12       30.21S
MOAB/CYNLANDS  CLEAR     54  13  19 NW6       30.22R
PRICE          PTCLDY    53  14  21 E3        30.28R
ST GEORGE      CLEAR     72  19  14 CALM      30.12R
KANAB            N/A     55  27  33 N6        30.24R

$$

REGIONAL REPORTS     COLORADO/ARIZONA

CITY           SKY/WX    TMP DP  RH WIND       PRES   REMARKS
CRAIG, CO      CLEAR     43  22  43 CALM      30.28R
GRAND JUNCTION CLEAR     45  22  40 CALM      30.25R
RIFLE          CLEAR     57  17  21 W16       30.24R
MONTROSE       CLEAR     52  18  26 NW5       30.29R
CORTEZ         CLEAR     50  15  24 CALM      30.27S
PAGE, AZ       CLEAR     61  22  22 CALM      30.19S
GRAND CANYON   CLEAR     54  18  24 NE3       30.31R
KINGMAN        CLEAR     66  29  24 E3        30.11S
FLAGSTAFF      PTCLDY    54  25  32 NE3       30.33R

$$

REGIONAL REPORTS    NEVADA/IDAHO/WYOMING

CITY           SKY/WX    TMP DP  RH WIND       PRES   REMARKS
LAS VEGAS, NV  CLEAR     79  19  10 S7        30.02F
ELY            PTCLDY    56  18  22 CALM      30.26R
ELKO           PTCLDY    58  29  33 CALM      30.21F
POCATELLO, ID  CLEAR     56  36  47 SW8       30.22F
BURLEY         MOCLDY    51  40  65 SW7       30.21S
EVANSTON, WY   PTCLDY    47  24  40 W15       30.32S
ROCK SPRINGS   PTCLDY    49  25  39 W13       30.28R
KEMMERER       CLEAR     43  30  61 W10       30.31R

$$



USA.gov is the U.S. government's official web portal to all federal, state and local government web resources and services.